This is the latest recevied weather packets stored in our database for station/object NI0Z. If no packets are shown the sender has not sent any weather packets the latest 10 day(s).
| Time | Temp. | Humidity | Pressure | Rain* | Wind** | Luminosity | Snow |
|---|---|---|---|---|---|---|---|
| 1777573442 | 17.22° C | 57% | - | 0 mm | - | - | - |
| 1777573137 | 17.22° C | 57% | - | 0 mm | - | - | - |
| 1777572834 | 16.67° C | 55% | - | 0 mm | - | - | - |
| 1777572530 | 17.22° C | 55% | - | 0 mm | - | - | - |
| 1777572225 | 17.22° C | 54% | - | 0 mm | - | - | - |
| 1777571921 | 17.22° C | 54% | - | 0 mm | - | - | - |
| 1777571616 | 16.67° C | 55% | - | 0 mm | - | - | - |
| 1777571314 | 16.67° C | 53% | - | 0 mm | - | - | - |
| 1777571010 | 17.22° C | 52% | - | 0 mm | - | - | - |
| 1777570706 | 16.67° C | 54% | - | 0 mm | - | - | - |
| 1777570403 | 16.67° C | 53% | - | 0 mm | - | - | - |
| 1777570098 | 16.67° C | 56% | - | 0 mm | - | - | - |
| 1777569795 | 17.78° C | 51% | - | 0 mm | - | - | - |
| 1777569490 | 17.22° C | 55% | - | 0 mm | - | - | - |
| 1777569188 | 16.67° C | 56% | - | 0 mm | - | - | - |
| 1777568884 | 16.67° C | 55% | - | 0 mm | - | - | - |
| 1777568581 | 16.67° C | 58% | - | 0 mm | - | - | - |
| 1777568278 | 16.67° C | 55% | - | 0 mm | - | - | - |
| 1777567974 | 16.67° C | 56% | - | 0 mm | - | - | - |
| 1777567670 | 16.11° C | 55% | - | 0 mm | - | - | - |
| 1777567368 | 16.11° C | 57% | - | 0 mm | - | - | - |
| 1777567066 | 16.11° C | 57% | - | 0 mm | - | - | - |
| 1777566764 | 16.11° C | 54% | - | 0 mm | - | - | - |
| 1777566461 | 16.11° C | 59% | - | 0 mm | - | - | - |
| 1777566159 | 15.56° C | 60% | - | 0 mm | - | - | - |
* Rain latest hour (hover to see other rain measurements)
** Current wind speed in m/s (hover to see current wind gust speed)